sat.trackr.live / text

‹ back to catalog

ORBCOMM FM06

NORAD 25118 · 1997-084G

PAYLOAD ACTIVE UNKNOWN

§ Identity

Operator
Country
ORB
Launch date
1997-12-23
Launch site
ERAS
Launch vehicle
Mass (kg)
RCS (m²)
0.51

Purposes: comms

External: N2YO · Heavens-Above · Gunter

§ Orbital elements

Epoch: 2026-09-19T18:14:49.284960Z

Period
99.46 min
Inclination
45.0147°
Eccentricity
0.0002039
Mean motion
14.47755185 rev/d
Perigee alt
731.5 km
Apogee alt
734.4 km
Semi-major
7,111.1 km
B*
2.2523e-4
RAAN
317.3603°
Arg perigee
260.2191°
Mean anomaly
192.6000°
Rev number
50,809

§ Raw data

ORBCOMM FM061 25118U 97084G   26262.76029265  .00000694  00000+0  22523-3 0  99952 25118  45.0147 317.3603 0002039 260.2191 192.6000 14.47755185508095

JSON: /api/v1/satellites/25118 · /tle

For live sub-satellite position, see the globe view (requires WebGL).

§ Visibility from observer

Set your observer location to see the next 7 days of passes ≥ 10°. The values pass through the URL so the page stays shareable.

No JS? Fill the form by hand. The geolocation button needs JavaScript.